DW7371 Weather Reports


time (UTC)temp
C
wind
direction
speed
KPH
gust
KPH
rain 1hr
cm
rain 24hr
cm
rain mn
cm
humidity
%
barometer
mb
20260508104641 8 112 0.0 4.8 0.00 0.00 0.00 94 1014.0
20260508102428 9 112 0.0 3.2 0.00 0.00 0.00 94 1013.9
20260508101445 8 128 0.0 3.2 0.00 0.00 0.00 94 1013.9
20260508095326 8 190 0.0 6.4 0.00 0.00 0.00 94 1014.0
20260508094302 9 151 1.6 4.8 0.00 0.00 0.00 93 1013.8
20260508093313 9 189 0.0 4.8 0.00 0.00 0.00 94 1013.8
20260508092313 8 150 0.0 4.8 0.00 0.00 0.00 94 1013.8
20260508091333 8 155 0.0 4.8 0.00 0.00 0.00 94 1013.9
20260508090320 8 175 0.0 3.2 0.00 0.00 0.00 93 1013.9
20260508085307 8 117 0.0 0.0 0.00 0.00 0.00 93 1013.8
20260508083144 8 128 0.0 0.0 0.00 0.00 0.00 93 1013.9
20260508082129 8 170 0.0 3.2 0.00 0.00 0.00 93 1013.9
20260508080053 9 55 0.0 0.0 0.00 0.00 0.00 92 1013.8
20260508075106 9 143 0.0 4.8 0.00 0.00 0.00 92 1014.1
20260508074127 9 163 0.0 4.8 0.00 0.00 0.00 93 1014.1
20260508073128 8 177 0.0 0.0 0.00 0.00 0.00 93 1014.2
20260508072107 8 189 0.0 1.6 0.00 0.00 0.00 92 1014.2
20260508064736 9 126 0.0 0.0 0.00 0.00 0.00 91 1014.2
20260508063753 9 110 0.0 0.0 0.00 0.00 0.00 91 1014.3
20260508062803 9 110 0.0 0.0 0.00 0.00 0.00 90 1014.3
20260508061750 9 110 0.0 0.0 0.00 0.00 0.00 90 1014.4
20260508060716 9 110 0.0 3.2 0.00 0.00 0.00 90 1014.4
20260508055729 9 119 0.0 3.2 0.00 0.00 0.00 90 1014.4
20260508054716 9 153 0.0 3.2 0.00 0.00 0.00 90 1014.5
20260508052603 9 157 0.0 0.0 0.00 0.00 0.00 90 1014.5
20260508051537 9 126 0.0 0.0 0.00 0.00 0.00 88 1014.5
20260508050509 10 126 0.0 0.0 0.00 0.00 0.00 88 1014.4
20260508044349 10 130 0.0 1.6 0.00 0.00 0.00 86 1014.4
20260508043349 10 100 1.6 4.8 0.00 0.00 0.00 85 1014.5
20260508042342 10 155 1.6 6.4 0.00 0.00 0.00 84 1014.6
20260508041328 11 183 3.2 6.4 0.00 0.00 0.00 83 1014.7
20260508035238 11 196 1.6 4.8 0.00 0.00 0.00 81 1014.7
20260508034217 11 147 0.0 3.2 0.00 0.00 0.00 81 1014.6
20260508033151 11 123 0.0 0.0 0.00 0.00 0.00 81 1014.6
20260508032125 11 127 0.0 1.6 0.00 0.00 0.00 81 1014.6
20260508031128 11 142 0.0 3.2 0.00 0.00 0.00 80 1014.6
20260508030134 11 250 4.8 14.5 0.00 0.00 0.00 79 1014.6
20260508025109 12 257 9.7 16.1 0.00 0.00 0.00 78 1014.7
20260508024103 12 263 9.7 14.5 0.00 0.00 0.00 77 1014.7
20260508023029 13 244 8.0 12.9 0.00 0.00 0.00 77 1014.9
20260508022007 13 204 8.0 14.5 0.00 0.00 0.00 76 1014.9
20260508021021 13 221 9.7 14.5 0.00 0.00 0.00 72 1014.8
20260508020012 15 215 9.7 14.5 0.00 0.00 0.00 70 1014.8
20260508014944 15 224 9.7 12.9 0.00 0.00 0.00 65 1014.8
20260508011702 16 197 6.4 12.9 0.00 0.00 0.00 68 1015.0
20260508010641 15 200 4.8 9.7 0.00 0.00 0.00 68 1015.1
20260508005703 15 208 6.4 9.7 0.00 0.00 0.00 71 1015.3
20260508004651 15 236 6.4 12.9 0.00 0.00 0.00 71 1015.3
20260508003701 15 182 3.2 14.5 0.00 0.00 0.00 70 1015.5
20260508002652 15 178 4.8 14.5 0.00 0.00 0.00 72 1015.5
20260508001633 15 164 8.0 14.5 0.00 0.00 0.00 70 1015.6
20260508000607 15 181 9.7 14.5 0.00 0.00 0.00 70 1015.5
20260507235629 15 159 9.7 20.9 0.00 0.00 0.00 69 1015.5
20260507234616 15 186 9.7 20.9 0.00 0.00 0.00 70 1015.4
20260507232451 16 197 4.8 12.9 0.00 0.00 0.00 69 1015.6
20260507230309 16 147 6.4 16.1 0.00 0.00 0.00 69 1015.8
20260507225236 15 185 8.0 16.1 0.00 0.00 0.00 71 1016.0
20260507224232 15 186 8.0 16.1 0.00 0.00 0.00 70 1016.0
20260507223244 16 187 8.0 14.5 0.00 0.00 0.00 69 1016.1
20260507222213 15 220 6.4 14.5 0.00 0.00 0.00 71 1016.1
20260507221205 16 190 6.4 14.5 0.00 0.00 0.00 73 1016.2
20260507220221 15 194 6.4 14.5 0.00 0.00 0.00 72 1016.4
20260507215231 15 194 4.8 14.5 0.00 0.00 0.00 74 1016.6
20260507214232 15 178 6.4 12.9 0.00 0.00 0.00 73 1016.7
20260507212143 15 217 8.0 14.5 0.00 0.00 0.00 78 1017.0
20260507211121 14 270 6.4 14.5 0.00 0.00 0.00 80 1017.1
20260507210135 13 281 1.6 9.7 0.00 0.00 0.00 80 1017.2
20260507205120 13 222 3.2 8.0 0.00 0.00 0.00 79 1017.3
20260507204117 13 194 3.2 8.0 0.00 0.00 0.00 79 1017.4
20260507203123 13 338 3.2 12.9 0.00 0.00 0.00 79 1017.5
20260507202138 14 225 1.6 12.9 0.00 0.00 0.00 79 1017.6
20260507201148 13 171 3.2 9.7 0.00 0.00 0.00 81 1017.7
20260507200144 13 211 1.6 6.4 0.00 0.00 0.00 81 1017.7
20260507195113 13 280 1.6 8.0 0.00 0.00 0.00 83 1017.9
20260507192931 12 309 0.0 4.8 0.00 0.00 0.00 82 1018.0
20260507191949 12 57 0.0 1.6 0.00 0.00 0.00 83 1018.0
20260507190954 12 268 1.6 4.8 0.00 0.00 0.00 84 1018.1
20260507190008 12 246 1.6 6.4 0.00 0.00 0.00 82 1018.1
20260507185029 12 193 1.6 6.4 0.00 0.00 0.00 82 1018.1
20260507184019 12 57 0.0 1.6 0.00 0.00 0.00 82 1018.2
20260507182952 12 298 0.0 4.8 0.00 0.00 0.00 81 1018.2
20260507181938 12 48 0.0 4.8 0.00 0.00 0.00 79 1018.3
20260507180939 13 10 0.0 3.2 0.00 0.00 0.00 79 1018.3
20260507175954 13 317 1.6 6.4 0.00 0.00 0.00 80 1018.3
20260507175000 13 30 1.6 6.4 0.00 0.00 0.00 79 1018.3
20260507172929 12 273 4.8 11.3 0.00 0.00 0.00 79 1018.2
20260507171937 12 274 4.8 11.3 0.00 0.00 0.00 79 1018.1
20260507170948 12 255 4.8 11.3 0.00 0.00 0.00 81 1018.2
20260507165919 12 240 3.2 9.7 0.00 0.00 0.00 80 1018.2
20260507164915 12 321 3.2 9.7 0.00 0.00 0.00 80 1018.2
20260507163919 12 257 1.6 8.0 0.00 0.00 0.00 82 1018.2
20260507161716 11 267 0.0 3.2 0.00 0.00 0.00 84 1018.2
20260507160655 11 267 0.0 0.0 0.00 0.00 0.00 84 1018.3
20260507155630 11 267 0.0 0.0 0.00 0.00 0.00 84 1018.3
20260507153519 11 267 0.0 0.0 0.00 0.00 0.00 86 1018.3
20260507152520 11 267 1.6 3.2 0.00 0.00 0.00 86 1018.3
20260507150405 11 240 3.2 6.4 0.00 0.00 0.00 86 1018.4
20260507144258 10 259 1.6 4.8 0.00 0.00 0.00 87 1018.4
20260507143242 10 280 1.6 3.2 0.00 0.00 0.00 88 1018.4
20260507142223 10 310 1.6 4.8 0.00 0.00 0.00 88 1018.4
20260507141216 10 261 1.6 9.7 0.00 0.00 0.00 88 1018.4
20260507140147 10 319 3.2 9.7 0.00 0.00 0.00 89 1018.4
20260507135119 10 272 3.2 9.7 0.00 0.00 0.00 89 1018.2
20260507132948 9 186 3.2 6.4 0.00 0.00 0.00 90 1018.2
20260507131920 9 186 1.6 4.8 0.00 0.00 0.00 90 1018.1
20260507130853 9 173 0.0 0.0 0.00 0.00 0.00 90 1018.1
20260507125906 9 145 0.0 6.4 0.00 0.00 0.00 90 1018.0
20260507124927 9 122 0.0 4.8 0.00 0.00 0.00 90 1018.1
20260507122804 9 150 0.0 0.0 0.00 0.00 0.00 90 1018.2
20260507121743 9 147 0.0 3.2 0.00 0.00 0.00 90 1018.2
20260507115552 9 129 0.0 3.2 0.00 0.00 0.00 89 1018.3
20260507114604 9 140 0.0 0.0 0.00 0.00 0.00 89 1018.5
20260507113624 9 125 0.0 0.0 0.00 0.00 0.00 90 1018.4
20260507111430 9 182 1.6 3.2 0.00 0.00 0.00 89 1018.3
20260507110436 9 142 0.0 3.2 0.00 0.00 0.00 89 1018.3
20260507105402 9 131 0.0 3.2 0.00 0.00 0.00 90 1018.3